Regional Weather Roundup
Issued by NWS

Home | Current Version | Previous Version | Graphics & Text | Print | Product List | Glossary On
Versions: 1 2 3 4 5 6 7 8 9 10 11 12 13 14 15 16 17 18 19 20 21 22 23 24 25 26 27 28 29 30 31 32 33 34 35 36 37 38 39 40 41 42 43 44 45 46 47 48 49 50
000
ASUS43 KBIS 192210
RWRND

NORTH DAKOTA REGIONAL WEATHER ROUNDUP
NATIONAL WEATHER SERVICE BISMARCK ND
400 PM CST SUN NOV 19 2017

NOTE: "FAIR" INDICATES FEW OR NO CLOUDS BELOW 12,000 FEET WITH NO
SIGNIFICANT WEATHER AND/OR OBSTRUCTIONS TO VISIBILITY.


NDZ001>003-009>011-017-192300-
NORTHWEST NORTH DAKOTA

CITY           SKY/WX    TMP DP  RH WIND       PRES   REMARKS
WILLISTON      CLOUDY    43  23  45 S6        29.69F
MINOT          CLOUDY    40  25  55 S5        29.71F
MINOT AFB      CLOUDY    38  26  60 S8        29.69F
$$

NDZ018>021-031>035-040>046-192300-
SOUTHWEST NORTH DAKOTA

CITY           SKY/WX    TMP DP  RH WIND       PRES   REMARKS
BISMARCK       CLOUDY    46  26  45 CALM      29.78F
DICKINSON      CLOUDY    42  20  41 S6        29.73F
GARRISON         N/A     36  28  73 E3        29.74F
HETTINGER ARPT CLOUDY    45  19  35 SW5       29.78F
$$

NDZ004>008-012>016-024-026-027-054-192300-
NORTHEAST NORTH DAKOTA

CITY           SKY/WX    TMP DP  RH WIND       PRES   REMARKS
GRAND FORKS    PTCLDY    31  25  78 S3        29.79F
GRND FRKS AFB  CLEAR     33  24  70 NW5       29.78F
DEVILS LAKE    CLOUDY    33  26  75 W6        29.76F
$$

NDZ022-023-025-028>030-036>039-047>053-192300-
SOUTHEAST NORTH DAKOTA

CITY           SKY/WX    TMP DP  RH WIND       PRES   REMARKS
FARGO          CLEAR     44  25  47 W7        29.79S
JAMESTOWN      CLOUDY    39  26  59 W7        29.77F
$$





USA.gov is the U.S. government's official web portal to all federal, state and local government web resources and services.